Terre Haute, IN

3:43 PM EST on December 05, 2019 (GMT -0500)
Terre Haute International-Hulman

Weather History for KHUF - October, 2019

Change the Weather History Date:

Monday, October 7, 2019

  Actual Average Record
Temperature  
Mean Temperature 59 °F 57 °F  
Max Temperature 73 °F 69 °F 90 °F (2007)
Min Temperature 45 °F 45 °F 28 °F (2001)
Degree Days  
Heating Degree Days 6 9  
Month to date heating degree days 17 54  
Since 1 July heating degree days 19 132  
Cooling Degree Days 0 1  
Month to date cooling degree days 34 7  
Year to date cooling degree days 1298 985  
Growing Degree Days 10 (Base 50)    
Moisture  
Dew Point 47 °F    
Average Humidity 64    
Maximum Humidity 100    
Minimum Humidity 27    
Precipitation  
Precipitation T in 0.10 in 1.49 in (1955)
Month to date precipitation 0.42 0.76  
Year to date precipitation 38.35 35.46  
Sea Level Pressure  
Sea Level Pressure 30.19 in    
Wind  
Wind Speed 3 mph (North)    
Max Wind Speed 12 mph    
Max Gust Speed 16 mph    
Visibility 10 miles    
Events      
T = Trace of Precipitation, MM = Missing Value Source: NWS Daily Summary

Daily Weather History Graph

Daily Weather History Graph

Search for Another Location

Airport or City:

Astronomy

Oct. 07, 2019 Rise Set
Actual Time 7:50 AM EDT 7:22 PM EDT
Civil Twilight 7:24 AM EDT 7:49 PM EDT
Nautical Twilight 6:52 AM EDT 8:20 PM EDT
Astronomical Twilight 6:21 AM EDT 8:51 PM EDT
Moon 4:42 PM EDT (10/7) 1:45 AM EDT (10/7)
Length of Visible Light 12h 25m
Length of Day
11h 31m
Waxing Gibbous, 69% of the Moon is Illuminated
Oct 7
Waxing Gibbous
Oct 13
Full
Oct 21
Last Quarter
Oct 27
New
Nov 4
First Quarter

Hourly Weather History & Observations

Time (EDT) Temp. Dew Point Humidity Pressure Visibility Wind Dir Wind Speed Gust Speed Precip Events Conditions
12:53 AM 59.0 °F 57.9 °F 96% 30.16 in 7.0 mi Calm Calm - N/A   Overcast
1:53 AM 59.0 °F 57.9 °F 96% 30.16 in 9.0 mi Calm Calm - 0.00 in   Mostly Cloudy
2:53 AM 57.9 °F 57.0 °F 97% 30.18 in 5.0 mi WNW 3.5 mph - N/A   Overcast
3:53 AM 57.9 °F 53.1 °F 84% 30.18 in 10.0 mi NNW 4.6 mph - N/A   Clear
4:53 AM 55.9 °F 48.9 °F 77% 30.18 in 10.0 mi NNW 3.5 mph - N/A   Clear
5:53 AM 55.0 °F 48.9 °F 80% 30.19 in 10.0 mi NNW 3.5 mph - N/A   Clear
6:53 AM 55.0 °F 48.0 °F 77% 30.18 in 10.0 mi North 4.6 mph - N/A   Clear
7:53 AM 53.1 °F 46.0 °F 77% 30.19 in 10.0 mi Calm Calm - N/A   Clear
8:53 AM 53.1 °F 48.0 °F 83% 30.21 in 10.0 mi Calm Calm - N/A   Clear
9:53 AM 55.0 °F 48.0 °F 77% 30.22 in 10.0 mi North 5.8 mph - N/A   Clear
10:53 AM 61.0 °F 48.0 °F 62% 30.23 in 10.0 mi North 5.8 mph - N/A   Clear
11:53 AM 66.0 °F 46.9 °F 50% 30.23 in 10.0 mi North 5.8 mph - N/A   Clear
12:53 PM 68.0 °F 45.0 °F 43% 30.23 in 10.0 mi North 4.6 mph - N/A   Clear
1:53 PM 71.1 °F 41.0 °F 34% 30.21 in 10.0 mi Calm Calm - N/A   Clear
2:53 PM 73.0 °F 37.9 °F 28% 30.19 in 10.0 mi North 10.4 mph - N/A   Clear
3:53 PM 73.0 °F 39.0 °F 29% 30.18 in 10.0 mi North 8.1 mph - N/A   Clear
4:53 PM 73.0 °F 41.0 °F 31% 30.17 in 10.0 mi North 3.5 mph - N/A   Clear
5:53 PM 72.0 °F 39.9 °F 31% 30.17 in 10.0 mi NE 4.6 mph - N/A   Clear
6:53 PM 69.1 °F 45.0 °F 42% 30.17 in 10.0 mi Calm Calm - N/A   Clear
7:53 PM 55.9 °F 48.9 °F 77% 30.19 in 10.0 mi Calm Calm - N/A   Clear
8:53 PM 53.1 °F 48.9 °F 86% 30.20 in 10.0 mi Calm Calm - N/A   Clear
9:53 PM 51.1 °F 48.0 °F 89% 30.21 in 10.0 mi Calm Calm - N/A   Clear
10:53 PM 48.9 °F 45.0 °F 86% 30.22 in 10.0 mi Calm Calm - N/A   Clear
11:53 PM 48.0 °F 46.0 °F 93% 30.22 in 10.0 mi Calm Calm - N/A   Clear